Stevens Pass
Stevens Pass Ski Area - Tye Mill Chair, Skyline Chair
Latest observation 08/31 19:00 PDT
| Time (PDT) | Temp °F 5180' | Temp °F 5250' | RH % 5250' | Min mph 5180' | Spd mph 5180' | Gust mph 5180' | Dir ° 5180' |
|---|---|---|---|---|---|---|---|
| 08/31 19:00 | 61 | 60 | 46 | 0 | 6 | 12 | 45 |
| 08/31 18:00 | 62 | 61 | 45 | 0 | 5 | 10 | 47 |
| 08/31 17:00 | 64 | 62 | 44 | 0 | 2 | 10 | 67 |
| 08/31 16:00 | 66 | 62 | 45 | 0 | 2 | 9 | 82 |
| 08/31 15:00 | 65 | 61 | 46 | 0 | 2 | 12 | 67 |
| 08/31 14:00 | 64 | 60 | 50 | 0 | 2 | 8 | 68 |
| 08/31 13:00 | 64 | 58 | 55 | 0 | 2 | 9 | 92 |
| 08/31 12:00 | 62 | 56 | 60 | 0 | 3 | 8 | 101 |
| 08/31 11:00 | 59 | 53 | 65 | 0 | 4 | 8 | 101 |
| 08/31 10:00 | 55 | 50 | 73 | 2 | 5 | 9 | 99 |
| 08/31 09:00 | 53 | 50 | 75 | 5 | 7 | 10 | 101 |
| 08/31 08:00 | 51 | 48 | 77 | 5 | 7 | 9 | 98 |
| 08/31 07:00 | 46 | 51 | 67 | 5 | 7 | 8 | 95 |
| 08/31 06:00 | 46 | 49 | 72 | 4 | 6 | 9 | 103 |
| 08/31 05:00 | 46 | 51 | 66 | 5 | 7 | 9 | 95 |
| 08/31 04:00 | 47 | 51 | 66 | 4 | 6 | 8 | 92 |
| 08/31 03:00 | 48 | 46 | 87 | 0 | 2 | 6 | 155 |
| 08/31 02:00 | 49 | 46 | 85 | 0 | 2 | 5 | 241 |
| 08/31 01:00 | 50 | 45 | 90 | 0 | 3 | 9 | 293 |
| 08/31 00:00 | 44 | 44 | 92 | 1 | 6 | 9 | 288 |
| 08/30 23:00 | 43 | 43 | 93 | 2 | 6 | 10 | 268 |
| 08/30 22:00 | 43 | 44 | 92 | 2 | 8 | 13 | 272 |
| 08/30 21:00 | 44 | 44 | 91 | 1 | 9 | 14 | 277 |
| 08/30 20:00 | 44 | 44 | 92 | 4 | 10 | 15 | 267 |
| 08/30 19:00 | 44 | 45 | 90 | 2 | 10 | 17 | 267 |
| 08/30 18:00 | 44 | 46 | 85 | 0 | 9 | 14 | 261 |
| 08/30 17:00 | 45 | 46 | 85 | 0 | 10 | 18 | 263 |
| 08/30 16:00 | 45 | 46 | 86 | 2 | 8 | 18 | 268 |
| 08/30 15:00 | 46 | 46 | 84 | 0 | 10 | 16 | 265 |
| 08/30 14:00 | 43 | 45 | 86 | 4 | 12 | 19 | 257 |
| 08/30 13:00 | 44 | 44 | 86 | 4 | 10 | 19 | 261 |
| 08/30 12:00 | 43 | 44 | 88 | 5 | 9 | 17 | 260 |
| 08/30 11:00 | 41 | 42 | 91 | 5 | 10 | 17 | 264 |
| 08/30 10:00 | 40 | 42 | 90 | 2 | 10 | 16 | 271 |
| 08/30 09:00 | 40 | 41 | 92 | 0 | 8 | 15 | 269 |
| 08/30 08:00 | 40 | 42 | 94 | 3 | 7 | 12 | 273 |
| 08/30 07:00 | 40 | 40 | 95 | 4 | 10 | 17 | 273 |
| 08/30 06:00 | 40 | 40 | 95 | 3 | 10 | 19 | 274 |
| 08/30 05:00 | 40 | 40 | 96 | 5 | 11 | 20 | 272 |
| 08/30 04:00 | 40 | 40 | 93 | 1 | 8 | 15 | 273 |
| 08/30 03:00 | 40 | 41 | 94 | 1 | 5 | 10 | 277 |
| 08/30 02:00 | 40 | 41 | 93 | 1 | 6 | 14 | 276 |
| 08/30 01:00 | 41 | 40 | 93 | 3 | 10 | 18 | 272 |
| 08/30 00:00 | 40 | 40 | 92 | 6 | 13 | 19 | 274 |
| 08/29 23:00 | 41 | 41 | 94 | 7 | 13 | 19 | 270 |
| 08/29 22:00 | 41 | 41 | 92 | 1 | 6 | 14 | 275 |
| 08/29 21:00 | 41 | 41 | 92 | 0 | 7 | 15 | 271 |
| 08/29 20:00 | 41 | 41 | 92 | 5 | 14 | 25 | 273 |
| 08/29 19:00 | 41 | 42 | 93 | 3 | 11 | 22 | 277 |
| 08/29 18:00 | 41 | 42 | 90 | 4 | 14 | 23 | 272 |
| 08/29 17:00 | 41 | 44 | 85 | 0 | 14 | 30 | 282 |
| 08/29 16:00 | 40 | 43 | 90 | 1 | 12 | 26 | 291 |
| 08/29 15:00 | 39 | 42 | 92 | 1 | 17 | 29 | 279 |
| 08/29 14:00 | 40 | 41 | 93 | 1 | 19 | 28 | 284 |
| 08/29 13:00 | 39 | 41 | 93 | 0 | 17 | 31 | 289 |
| 08/29 12:00 | 39 | 41 | 94 | 1 | 11 | 29 | 301 |
| 08/29 11:00 | 39 | 40 | 95 | 2 | 16 | 28 | 289 |
| 08/29 10:00 | 39 | 39 | 96 | 0 | 9 | 25 | 299 |
| 08/29 09:00 | 39 | 40 | 96 | 2 | 14 | 27 | 293 |
| 08/29 08:00 | 40 | 40 | 97 | 0 | 10 | 24 | 289 |
| 08/29 07:00 | 40 | 40 | 96 | 0 | 10 | 22 | 283 |
| 08/29 06:00 | 41 | 42 | 94 | 0 | 8 | 15 | 278 |
| 08/29 05:00 | 41 | 42 | 93 | 4 | 10 | 17 | 275 |
| 08/29 04:00 | 41 | 42 | 94 | 5 | 12 | 20 | 275 |
| 08/29 03:00 | 43 | 43 | 95 | 1 | 9 | 18 | 277 |
| 08/29 02:00 | 44 | 44 | 94 | 4 | 9 | 16 | 269 |
| 08/29 01:00 | 44 | 45 | 91 | 0 | 7 | 17 | 293 |
| 08/29 00:00 | 45 | 45 | 90 | 0 | 7 | 14 | 284 |
| 08/28 23:00 | 45 | 45 | 92 | 0 | 5 | 16 | 290 |
| 08/28 22:00 | 45 | 45 | 91 | 5 | 14 | 23 | 281 |
| 08/28 21:00 | 46 | 46 | 91 | 1 | 11 | 20 | 291 |
| 08/28 20:00 | 47 | 47 | 88 | 0 | 6 | 20 | 299 |
| 08/28 19:00 | 48 | 49 | 81 | 0 | 5 | 16 | 307 |
| 08/28 18:00 | 53 | 53 | 71 | 0 | 4 | 15 | 298 |
| 08/28 17:00 | 56 | 56 | 59 | 0 | 4 | 15 | 291 |
| 08/28 16:00 | 58 | 58 | 56 | 0 | 5 | 14 | 282 |
| 08/28 15:00 | 59 | 60 | 52 | 0 | 4 | 13 | 285 |
| 08/28 14:00 | 58 | 59 | 54 | 0 | 3 | 9 | 286 |
| 08/28 13:00 | 56 | 54 | 67 | 0 | 3 | 9 | 284 |
| 08/28 12:00 | 52 | 53 | 72 | 0 | 6 | 14 | 284 |
| 08/28 11:00 | 49 | 51 | 77 | 0 | 5 | 12 | 277 |
| 08/28 10:00 | 47 | 49 | 81 | 0 | 2 | 8 | 286 |
| 08/28 09:00 | 45 | 47 | 85 | 0 | 5 | 10 | 278 |
| 08/28 08:00 | 44 | 46 | 91 | 2 | 7 | 11 | 271 |
| 08/28 07:00 | 44 | 45 | 92 | 0 | 4 | 9 | 276 |
| 08/28 06:00 | 44 | 45 | 94 | 0 | 5 | 12 | 276 |
| 08/28 05:00 | 44 | 45 | 94 | 2 | 5 | 11 | 268 |
| 08/28 04:00 | 45 | 45 | 93 | 2 | 7 | 12 | 266 |
| 08/28 03:00 | 45 | 45 | 90 | 3 | 6 | 12 | 258 |
| 08/28 02:00 | 45 | 46 | 90 | 1 | 6 | 15 | 262 |
| 08/28 01:00 | 45 | 46 | 93 | 0 | 11 | 21 | 282 |
| 08/28 00:00 | 46 | 46 | 92 | 0 | 14 | 21 | 275 |
| 08/27 23:00 | 46 | 47 | 92 | 0 | 14 | 21 | 274 |
| 08/27 22:00 | 47 | 48 | 88 | 6 | 13 | 22 | 268 |
| 08/27 21:00 | 48 | 48 | 87 | 5 | 14 | 21 | 281 |
| 08/27 20:00 | 48 | 48 | 84 | 1 | 9 | 23 | 293 |
| 08/27 19:00 | 49 | 51 | 76 | 0 | 7 | 18 | 284 |
| 08/27 18:00 | 51 | 52 | 72 | 0 | 6 | 18 | 291 |
| 08/27 17:00 | 53 | 52 | 72 | 0 | 5 | 20 | 288 |
| 08/27 16:00 | 53 | 53 | 71 | 0 | 6 | 23 | 290 |
| 08/27 15:00 | 52 | 54 | 69 | 0 | 3 | 13 | 320 |
| 08/27 14:00 | 57 | 57 | 57 | 0 | 3 | 13 | 296 |
| 08/27 13:00 | 55 | 59 | 50 | 0 | 3 | 11 | 292 |
| 08/27 12:00 | 55 | 57 | 52 | 0 | 4 | 16 | 287 |
| 08/27 11:00 | 52 | 52 | 66 | 0 | 4 | 14 | 288 |
| 08/27 10:00 | 49 | 51 | 76 | 0 | 5 | 15 | 282 |
| 08/27 09:00 | 51 | 52 | 73 | 0 | 4 | 11 | 284 |
| 08/27 08:00 | 49 | 49 | 82 | 0 | 5 | 12 | 286 |
| 08/27 07:00 | 49 | 49 | 83 | 0 | 6 | 15 | 287 |
| 08/27 06:00 | 50 | 50 | 81 | 0 | 4 | 13 | 288 |
| 08/27 05:00 | 51 | 51 | 78 | 0 | 3 | 10 | 291 |
| 08/27 04:00 | 50 | 50 | 78 | 0 | 5 | 10 | 273 |
| 08/27 03:00 | 52 | 51 | 78 | 0 | 3 | 11 | 289 |
| 08/27 02:00 | 52 | 50 | 78 | 0 | 2 | 6 | 291 |
| 08/27 01:00 | 52 | 50 | 77 | 0 | 4 | 6 | 271 |
| 08/27 00:00 | 52 | 51 | 75 | 1 | 4 | 10 | 249 |
| 08/26 23:00 | 53 | 52 | 71 | 0 | 6 | 10 | 268 |
| 08/26 22:00 | 54 | 53 | 67 | 0 | 6 | 11 | 271 |
| 08/26 21:00 | 54 | 54 | 67 | 0 | 4 | 8 | 261 |
| 08/26 20:00 | 56 | 56 | 61 | 1 | 7 | 12 | 272 |
| 08/26 19:00 | 58 | 59 | 53 | 6 | 11 | 19 | 263 |
| 08/26 18:00 | 61 | 62 | 45 | 1 | 12 | 22 | 283 |
| 08/26 17:00 | 62 | 64 | 37 | 1 | 10 | 23 | 285 |
| 08/26 16:00 | 64 | 65 | 39 | 0 | 6 | 18 | 291 |
| 08/26 15:00 | 63 | 66 | 47 | 0 | 6 | 17 | 294 |
| 08/26 14:00 | 62 | 64 | 59 | 0 | 9 | 19 | 292 |
| 08/26 13:00 | 61 | 65 | 58 | 9 | 15 | 24 | 254 |
| 08/26 12:00 | 62 | 66 | 52 | 5 | 10 | 18 | 265 |
| 08/26 11:00 | 63 | 70 | 45 | 3 | 6 | 11 | 284 |
| 08/26 10:00 | 63 | 71 | 43 | 1 | 3 | 4 | 294 |
| 08/26 09:00 | 64 | 69 | 26 | 0 | 1 | 4 | 323 |
| 08/26 08:00 | 63 | 66 | 30 | 0 | 2 | 5 | 312 |
| 08/26 07:00 | 62 | 58 | 55 | 1 | 5 | 7 | 288 |
| 08/26 06:00 | 61 | 57 | 60 | 1 | 5 | 7 | 289 |
| 08/26 05:00 | 62 | 57 | 63 | 1 | 5 | 7 | 286 |
| 08/26 04:00 | 62 | 58 | 61 | 1 | 3 | 7 | 294 |
| 08/26 03:00 | 61 | 57 | 47 | 1 | 4 | 8 | 291 |
| 08/26 02:00 | 62 | 58 | 48 | 1 | 7 | 10 | 279 |
| 08/26 01:00 | 60 | 57 | 62 | 5 | 9 | 12 | 280 |
| 08/26 00:00 | 60 | 57 | 60 | 5 | 7 | 10 | 281 |
| 08/25 23:00 | 61 | 58 | 57 | 3 | 6 | 9 | 280 |
| 08/25 22:00 | 60 | 59 | 59 | 3 | 7 | 10 | 278 |
| 08/25 21:00 | 60 | 59 | 67 | 4 | 11 | 19 | 264 |
| 08/25 20:00 | 61 | 60 | 65 | 1 | 11 | 20 | 274 |
| 08/25 19:00 | 64 | 64 | 59 | 3 | 11 | 21 | 251 |
| 08/25 18:00 | 66 | 66 | 56 | 2 | 8 | 23 | 241 |
| 08/25 17:00 | 71 | 69 | 47 | 0 | 4 | 9 | 218 |
| 08/25 16:00 | 77 | 73 | 27 | 0 | 2 | 6 | 73 |
| 08/25 15:00 | 76 | 71 | 30 | 0 | 2 | 9 | 72 |
| 08/25 14:00 | 75 | 72 | 29 | 0 | 2 | 7 | 64 |
| 08/25 13:00 | 76 | 72 | 30 | 0 | 2 | 8 | 81 |
| 08/25 12:00 | 74 | 69 | 34 | 0 | 3 | 9 | 99 |
| 08/25 11:00 | 71 | 67 | 37 | 0 | 3 | 7 | 99 |
| 08/25 10:00 | 70 | 64 | 41 | 0 | 4 | 8 | 95 |
| 08/25 09:00 | 68 | 64 | 40 | 2 | 5 | 9 | 96 |
| 08/25 08:00 | 66 | 65 | 37 | 3 | 6 | 9 | 105 |
| 08/25 07:00 | 63 | 61 | 40 | 3 | 6 | 7 | 107 |
| 08/25 06:00 | 59 | 61 | 37 | 3 | 5 | 8 | 103 |
| 08/25 05:00 | 60 | 61 | 37 | 1 | 4 | 6 | 81 |
| 08/25 04:00 | 60 | 60 | 41 | 1 | 4 | 6 | 87 |
| 08/25 03:00 | 60 | 59 | 42 | 3 | 4 | 6 | 93 |
| 08/25 02:00 | 60 | 61 | 40 | 0 | 2 | 5 | 86 |
| 08/25 01:00 | 61 | 62 | 40 | 0 | 3 | 7 | 95 |
| 08/25 00:00 | 61 | 62 | 40 | 2 | 3 | 5 | 94 |
| 08/24 23:00 | 61 | 62 | 39 | 0 | 3 | 6 | 100 |
| 08/24 22:00 | 62 | 62 | 42 | 0 | 2 | 5 | 83 |
| 08/24 21:00 | 64 | 62 | 44 | 0 | 2 | 5 | 85 |
| 08/24 20:00 | 65 | 64 | 42 | 0 | 3 | 9 | 64 |

